Edwards AFB North Base, CA

10:05 PM PST on December 14, 2019 (GMT -0800)
Edwards AFB North Base

Weather History for K9L2 - May, 2019

Change the Weather History Date:

Monday, May 20, 2019

  Actual Average (KEDW) Record (KEDW)
Temperature  
Mean Temperature 55 °F -  
Max Temperature 65 °F 82 °F 95 °F (2000)
Min Temperature 46 °F 53 °F 46 °F (2011)
Degree Days  
Heating Degree Days 10    
Growing Degree Days 5 (Base 50)    
Moisture  
Dew Point 35 °F    
Average Humidity 44    
Maximum Humidity 71    
Minimum Humidity 26    
Precipitation  
Precipitation 0.00 in - - ()
Sea Level Pressure  
Sea Level Pressure 29.82 in    
Wind  
Wind Speed 17 mph ()    
Max Wind Speed 31 mph    
Max Gust Speed 40 mph    
Visibility 7.8 miles    
Events      
Averages and records for this station are not official NWS values.
T = Trace of Precipitation, MM = Missing Value Source: Averaged Metar Reports

Daily Weather History Graph

Daily Weather History Graph

Search for Another Location

Airport or City:

Astronomy

May. 20, 2019 Rise Set
Actual Time 5:44 AM PDT 7:51 PM PDT
Civil Twilight 5:16 AM PDT 8:20 PM PDT
Nautical Twilight 4:41 AM PDT 8:55 PM PDT
Astronomical Twilight 4:04 AM PDT 9:32 PM PDT
Moon 9:55 PM PDT (5/20) 7:17 AM PDT (5/20)
Length of Visible Light 15h 04m
Length of Day
14h 07m
Waning Gibbous, 96% of the Moon is Illuminated
May 20
Waning Gibbous
May 26
Last Quarter
Jun 3
New
Jun 9
First Quarter
Jun 17
Full

Hourly Weather History & Observations

Time (PDT) Temp. Windchill Dew Point Humidity Pressure Visibility Wind Dir Wind Speed Gust Speed Precip Events Conditions
12:28 AM 48.2 °F - 37.4 °F 66% 29.79 in 9.0 mi WSW 21.9 mph 28.8 mph N/A   Mostly Cloudy
12:58 AM 48.4 °F - 39.2 °F 71% 29.80 in 10.0 mi South 11.5 mph - N/A   Overcast
1:58 AM 48.6 °F - 39.0 °F 70% 29.78 in 9.0 mi WSW 10.4 mph - N/A   Mostly Cloudy
2:13 AM 48.2 °F - 37.4 °F 66% 29.77 in 10.0 mi West 12.7 mph - N/A   Scattered Clouds
2:58 AM 47.1 °F - 37.6 °F 69% 29.77 in 10.0 mi SW 13.8 mph - N/A   Clear
3:58 AM 46.9 °F - 37.2 °F 69% 29.77 in 10.0 mi WSW 20.7 mph - N/A   Clear
4:58 AM 46.2 °F 40.1 °F 36.7 °F 69% 29.78 in 10.0 mi WSW 13.8 mph - N/A   Clear
6:58 AM 48.7 °F - 36.5 °F 63% 29.83 in 9.0 mi SW 10.4 mph - N/A   Clear
7:58 AM 51.8 °F - 35.4 °F 54% 29.82 in 8.0 mi SW 13.8 mph - N/A   Clear
8:58 AM 55.2 °F - 36.3 °F 49% 29.84 in 8.0 mi SW 18.4 mph 21.9 mph N/A   Clear
9:58 AM 57.7 °F - 33.4 °F 40% 29.83 in 8.0 mi West 9.2 mph 17.3 mph N/A   Clear
10:58 AM 61.2 °F - 33.8 °F 36% 29.82 in 7.0 mi SW 10.4 mph 17.3 mph N/A   Clear
11:10 AM 62.6 °F - 33.8 °F 34% 29.82 in 7.0 mi WSW 15.0 mph 21.9 mph N/A   Clear
11:47 AM 62.6 °F - 32.0 °F 32% 29.83 in 7.0 mi SSW 21.9 mph 26.5 mph N/A   Clear
11:58 AM 62.2 °F - 31.5 °F 31% 29.83 in 7.0 mi SW 15.0 mph 23.0 mph N/A   Clear
12:58 PM 64.0 °F - 28.8 °F 26% 29.83 in 6.0 mi SW 15.0 mph - N/A   Haze
1:13 PM 64.4 °F - 32.0 °F 30% 29.83 in 7.0 mi WSW 19.6 mph 25.3 mph N/A   Partly Cloudy
1:43 PM 64.4 °F - 32.0 °F 30% 29.83 in 6.0 mi WSW 23.0 mph 31.1 mph N/A   Haze
1:58 PM 63.5 °F - 33.1 °F 32% 29.84 in 6.0 mi WSW 23.0 mph - N/A   Haze
2:10 PM 64.4 °F - 32.0 °F 30% 29.83 in 7.0 mi WSW 23.0 mph 31.1 mph N/A   Clear
2:25 PM 64.4 °F - 32.0 °F 30% 29.83 in 6.0 mi WSW 24.2 mph 29.9 mph N/A   Haze
2:58 PM 64.0 °F - 32.9 °F 31% 29.84 in 6.0 mi WSW 26.5 mph 31.1 mph N/A   Haze
3:28 PM 64.4 °F - 33.8 °F 32% 29.83 in 7.0 mi WSW 28.8 mph 34.5 mph N/A   Clear
3:43 PM 64.4 °F - 33.8 °F 32% 29.83 in 6.0 mi West 31.1 mph 35.7 mph N/A   Haze
3:58 PM 63.7 °F - 33.4 °F 32% 29.84 in 6.0 mi West 27.6 mph 38.0 mph N/A   Haze
4:13 PM 62.6 °F - 33.8 °F 34% 29.83 in 7.0 mi WSW 27.6 mph 39.1 mph N/A   Clear
4:58 PM 62.2 °F - 34.7 °F 36% 29.83 in 6.0 mi WSW 26.5 mph 36.8 mph N/A   Haze
5:43 PM 60.8 °F - 35.6 °F 39% 29.83 in 7.0 mi West 28.8 mph 39.1 mph N/A   Clear
5:58 PM 60.8 °F - 35.2 °F 38% 29.83 in 7.0 mi WSW 31.1 mph 39.1 mph N/A   Clear
6:58 PM 58.6 °F - 36.0 °F 43% 29.82 in 7.0 mi WSW 27.6 mph 34.5 mph N/A   Clear
7:58 PM 55.6 °F - 36.5 °F 49% 29.84 in 7.0 mi SW 21.9 mph 27.6 mph N/A   Clear
8:58 PM 54.9 °F - 35.4 °F 48% 29.85 in 10.0 mi SW 23.0 mph 27.6 mph N/A   Clear
9:58 PM 54.9 °F - 34.5 °F 46% 29.86 in 10.0 mi WSW 29.9 mph 38.0 mph N/A   Clear
10:58 PM 55.0 °F - 32.9 °F 43% 29.85 in 10.0 mi WSW 31.1 mph 40.3 mph N/A   Clear
11:58 PM 54.1 °F - 35.8 °F 50% 29.89 in 10.0 mi WSW 27.6 mph 35.7 mph N/A   Clear